Location: Caltech
(34.1382°N, 118.1253°W)
Time: 10:21:38
(UTC-07:00)

Daily predictions for brighter satellites

Satellite Brightness Start Highest point End
(mag) Time Altitude Azimuth Time Altitude Azimuth Time Altitude Azimuth
USA 238 DEB 4.2 18:53:16 10° SW 19:00:17 70° WNW 19:07:19 10° NNE
USA 238 4.2 18:53:21 10° SW 19:00:23 71° WNW 19:07:26 10° NNE
Atlas Centaur 2 3.4 18:54:20 10° W 19:02:51 67° S 19:10:47 10° ESE
SL-19 R/B 4.4 18:58:07 10° SSE 19:03:31 56° ENE 19:09:10 10° N
Cosmos 1844 3.9 19:00:16 10° NNW 19:05:51 77° WSW 19:11:22 10° SSE
ALOS 4.1 19:06:36 10° E 19:08:37 13° ENE 19:10:37 10° NE
Cosmos 1437 3.5 19:06:15 10° NNE 19:09:14 32° ENE 19:12:12 10° SE
ASTRO E2 3.2 19:05:52 10° WSW 19:09:46 47° S 19:13:39 10° E
FREGAT/IRIS 3.8 19:07:39 10° SE 19:10:14 25° ENE 19:12:50 10° NNE
Cosmos 1766 3.8 19:07:59 10° SSE 19:11:37 36° E 19:15:17 10° NNE
Cosmos 1844 Rocket 4.0 19:09:03 10° NW 19:14:22 46° WSW 19:19:40 10° S
Spot 2 Rocket 4.2 19:13:31 10° SE 19:17:57 32° ENE 19:22:23 10° N
Cosmos 2237 Rocket 3.3 19:13:38 10° SW 19:19:07 50° WNW 19:24:39 10° N
OAO 3 Rocket 3.2 19:14:28 10° WSW 19:19:12 78° SSE 19:23:54 11° E
NOAA 12 4.2 19:16:14 10° SSE 19:21:20 55° ENE 19:26:29 10° N
Helios 1A 4.0 19:19:03 10° SE 19:22:32 27° ENE 19:26:03 10° NNE
IDEFIX/ARIANE 42P 4.3 19:18:32 10° SSW 19:23:19 37° W 19:28:08 10° NNW
Cosmos 2056 Rocket 3.8 19:18:02 10° N 19:23:19 50° ENE 19:28:32 10° SE
Cosmos 2346 Rocket 4.4 19:17:22 10° N 19:23:27 76° E 19:29:28 10° S
COSMO-SKYMED 1 3.9 19:20:02 10° N 19:24:11 45° WNW 19:28:19 10° SSW
SAR-Lupe-1 3.9 19:23:11 10° SSE 19:26:43 74° ENE 19:30:17 10° N
Cosmos 1953 3.3 19:25:06 10° SSE 19:28:24 25° E 19:31:43 10° NE
ATLAS CENTAUR R/B 3.1 19:26:29 10° SW 19:30:33 88° SE 19:43:06 10° NE
ATLAS 5 CENTAUR R/B 2.0 19:26:14 10° S 19:30:42 47° ESE 19:35:29 10° NE
CZ-4C R/B 3.9 19:26:48 10° WSW 19:31:34 34° NW 19:36:50 10° NNE
Aureole 2 Rocket 3.0 19:27:31 10° SSW 19:31:54 87° ESE 19:36:17 10° NNE
NOSS 3-2 (C) 3.4 19:26:29 10° SSW 19:32:24 68° ESE 19:38:47 10° NE
Cosmos 1371 Rocket 4.0 19:27:33 10° NNW 19:32:52 85° ENE 19:38:12 10° SSE
CENTAUR R/B 3.8 19:32:49 10° SE 19:36:01 15° ESE 19:36:16 15° ESE
SL-16 R/B 2.3 19:32:01 10° SSW 19:37:43 84° WNW 19:43:26 10° NNE
HJ-1C 3.4 19:40:38 10° SSE 19:43:54 54° ENE 19:47:12 10° N
Cosmos 1805 3.6 19:41:18 10° SSE 19:44:59 40° E 19:48:41 10° NNE
Cosmos 2034 Rocket 4.1 19:39:28 10° SSE 19:45:31 56° E 19:51:39 10° NNE
Cosmos 1766 Rocket 3.9 19:41:37 10° N 19:45:45 40° E 19:49:49 10° SSE
H-2A R/B 4.0 19:47:27 22° ENE 19:47:44 22° ENE 19:50:45 10° NNE
Cosmos 1464 Rocket 3.9 19:42:22 10° S 19:48:39 82° E 19:54:53 10° N
Cosmos 1624 Rocket 4.1 19:45:36 10° NNW 19:50:49 81° WSW 19:55:59 10° SSE
Meteor 1-29 2.8 19:49:19 10° NNE 19:52:50 76° ESE 19:56:19 10° S
Cosmos 724 4.3 19:48:49 10° S 19:54:32 57° ESE 20:00:25 10° NE
SL-8 R/B 4.1 19:50:41 10° SSW 19:55:09 40° SE 19:57:10 27° E
Cosmos 1378 3.4 19:55:34 10° NNW 19:59:16 69° W 20:02:58 10° S
Cosmos 1544 3.5 19:56:17 10° SSE 19:59:45 39° E 20:03:16 10° NNE
SJ-6B 4.2 19:57:08 10° S 20:00:50 41° W 20:04:39 10° NNW
METEOR-M 4.3 19:59:15 10° S 20:04:35 77° WSW 20:09:57 10° NNW
Abrixas 3.7 20:02:03 10° SSW 20:03:58 28° S 20:03:58 28° S
Cosmos 2278 Rocket 3.8 20:01:49 10° NW 20:06:54 35° WSW 20:11:57 10° SSW
Cosmos-2242 2.9 20:03:09 10° S 20:07:28 74° E 20:11:51 10° N
Cosmos 1076 Rocket 3.5 20:03:13 10° N 20:07:33 86° W 20:11:54 10° S
Cosmos 1758 3.3 20:05:04 10° S 20:09:07 89° W 20:13:14 10° N
Cosmos 2297 3.9 20:05:14 10° NNW 20:10:53 73° WSW 20:16:29 10° SSE
FENGYUN 3A 3.6 20:07:09 17° SSE 20:11:13 59° ENE 20:16:30 10° N
USA 215 4.2 20:06:27 10° NNE 20:12:36 45° NW 20:18:43 10° WSW
Timation 1 Rocket 4.2 20:07:21 10° NNW 20:13:21 81° ENE 20:17:41 19° SSE
ISS -0.8 20:10:39 10° S 20:11:00 12° S 20:11:00 12° S
Helios 1B rocket 3.5 20:10:31 10° N 20:14:26 46° WNW 20:18:22 10° SSW
Cosmos 1452 Rocket 3.4 20:14:52 10° NNW 20:20:07 69° ENE 20:22:15 36° SE
Cosmos 1408 Rocket 3.8 20:17:03 10° NNW 20:21:21 67° W 20:25:38 10° S
CZ-4B DEB 3.1 20:21:56 57° N 20:21:56 57° N 20:24:39 10° N
OAO 1 Rocket 4.4 20:16:02 10° W 20:21:26 90° NNW 20:23:07 45° E
Resurs 01 Rocket 2.5 20:17:32 10° S 20:21:51 50° W 20:26:11 10° NNW
SeaSat 1 2.3 20:19:10 10° NNE 20:24:07 75° ESE 20:29:02 10° SSW
Cosmos 1603 3.6 20:19:03 10° SSW 20:24:46 88° ESE 20:30:33 10° NNE
Resurs 1-3 4.1 20:21:14 10° S 20:25:34 60° W 20:29:55 10° NNW
Cosmos 2369 Rocket 3.8 20:22:29 10° NNE 20:25:24 19° NE 20:25:24 19° NE
SEDSat Delta rocket 4.0 20:21:34 10° W 20:28:19 71° S 20:30:30 45° ESE
GPS 2-04 Rocket1 4.1 20:35:02 10° SW 20:36:51 27° SW 20:36:51 27° SW
ATLAS CENTAUR R/B 3.6 20:36:11 10° WNW 20:39:13 21° WSW 20:41:34 12° SSW
Cosmos 1420 Rocket 4.1 20:38:51 10° N 20:43:37 59° NE 20:43:37 59° NE
ALOS 2.9 20:43:08 27° SSW 20:45:31 55° W 20:50:07 10° NNW
Cosmos 1743 Rocket 3.8 20:43:49 10° N 20:47:53 69° NW 20:47:53 69° NW
BREEZE-M DEB (TANK) 4.0 20:33:35 10° NW 20:50:10 63° SW 20:51:56 44° S
ASTRO E2 4.0 20:46:14 10° W 20:48:52 36° WSW 20:48:52 36° WSW
Atlas Centaur 2 3.5 20:44:32 10° W 20:52:23 44° SSW 20:54:17 38° SSE
Cosmos 1269 Rocket 4.4 20:47:40 10° SSW 20:52:53 62° WNW 20:58:07 10° N
Cosmos 1048 Rocket 4.4 20:54:10 10° SSW 20:59:26 63° WNW 21:04:41 10° N
OAO 3 Rocket 3.8 20:57:59 10° W 21:01:43 53° WNW 21:01:43 53° WNW
Nadezhda 4 Rocket 4.5 20:58:17 10° NNW 21:04:25 58° W 21:08:07 24° SSW
Cosmos 2142 Rocket 4.4 21:07:47 81° SSW 21:08:09 88° W 21:14:35 10° N
Cosmos 1092 Rocket 4.0 21:03:24 10° N 21:09:36 74° W 21:10:19 66° SW
ATLAS 5 CENTAUR R/B 4.3 21:12:11 10° W 21:15:40 19° NW 21:19:20 10° N
Cosmos 1634 Rocket 4.2 21:18:19 56° SW 21:19:26 67° W 21:25:39 10° N
CENTAUR R/B 3.2 21:19:46 10° SW 21:34:47 - NNE 21:23:41 44° SW
Cosmos 2369 Rocket 4.4 22:05:23 10° NNW 22:07:13 21° NW 22:07:13 21° NW
